When you browse on this site, cookies collect data to enhance your experience and personalize the content and advertising you see.
Visit our Privacy Policy to learn more. By continuing to use the site, you agree to this use of cookies and data.
  • In United Kingdom
  • List of Countries
  • For 7 days
  • Water Temperature
  • Satellite Maps
  • Weather Map
  • Weather Widgets
  • user-avatar
    Login

    Hourly Weather Tuzla

    Today, 23 January, Wednesday

    Time Temperature Precipitation Wind Pressure Humidity
    00:00 -3°C° 0.1 mm 0 mps 710 mmHg 96%
    01:00 -3°C° 0 mm 0 mps 709 mmHg 96%
    02:00 -3°C° 0 mm 0 mps 709 mmHg 96%
    03:00 -3°C° 0 mm 0 mps 709 mmHg 95%
    04:00 -2°C° 0 mm 1 mps 708 mmHg 95%
    05:00 -2°C° 0 mm 1 mps 708 mmHg 94%
    06:00 -1°C° 0 mm 1 mps 708 mmHg 94%
    07:00 -2°C° 0 mm 1 mps 709 mmHg 94%
    08:00 0°C° 0 mm 1 mps 709 mmHg 92%
    09:00 +1°C° 0 mm 1 mps 709 mmHg 91%
    10:00 +3°C° 0 mm 1 mps 709 mmHg 89%
    11:00 +3°C° 0 mm 1 mps 708 mmHg 89%
    12:00 +4°C° 0 mm 1 mps 708 mmHg 88%
    13:00 +5°C° 0 mm 1 mps 708 mmHg 87%
    14:00 +4°C° 0 mm 1 mps 708 mmHg 90%
    15:00 +3°C° 0 mm 1 mps 707 mmHg 92%
    16:00 +2°C° 0 mm 1 mps 707 mmHg 95%
    17:00 +2°C° 0 mm 1 mps 707 mmHg 96%
    18:00 +1°C° 0 mm 1 mps 707 mmHg 97%
    19:00 0°C° 0 mm 1 mps 707 mmHg 97%
    20:00 0°C° 0 mm 1 mps 707 mmHg 97%
    21:00 0°C° 0 mm 1 mps 707 mmHg 98%
    22:00 0°C° 0 mm 1 mps 707 mmHg 98%
    23:00 0°C° 0 mm 1 mps 707 mmHg 97%

    Tomorrow, 24 January, Thursday

    Time Temperature Precipitation Wind Pressure Humidity
    00:00 0°C° 0 mm 1 mps 707 mmHg 97%
    01:00 0°C° 0 mm 1 mps 707 mmHg 97%
    02:00 0°C° 0.1 mm 1 mps 707 mmHg 97%
    03:00 0°C° 0.1 mm 1 mps 707 mmHg 97%
    04:00 0°C° 0.1 mm 1 mps 707 mmHg 97%
    05:00 0°C° 0.2 mm 1 mps 707 mmHg 97%
    06:00 0°C° 0.2 mm 1 mps 707 mmHg 97%
    07:00 0°C° 0.2 mm 1 mps 708 mmHg 97%
    08:00 0°C° 0.3 mm 1 mps 708 mmHg 96%
    09:00 0°C° 0.3 mm 1 mps 708 mmHg 95%
    10:00 -2°C° 0.3 mm 2 mps 708 mmHg 94%
    11:00 -2°C° 0.2 mm 2 mps 708 mmHg 93%
    12:00 -1°C° 0.2 mm 2 mps 708 mmHg 93%
    13:00 -1°C° 0.2 mm 2 mps 709 mmHg 92%
    14:00 -1°C° 0.3 mm 2 mps 709 mmHg 93%
    15:00 -1°C° 0.3 mm 2 mps 709 mmHg 94%
    16:00 -2°C° 0.3 mm 2 mps 709 mmHg 95%
    17:00 0°C° 0.3 mm 1 mps 709 mmHg 95%
    18:00 0°C° 0.3 mm 1 mps 709 mmHg 96%
    19:00 0°C° 0.3 mm 1 mps 709 mmHg 96%
    20:00 -2°C° 0.3 mm 2 mps 710 mmHg 97%
    21:00 -2°C° 0.3 mm 2 mps 710 mmHg 97%
    22:00 -2°C° 0.3 mm 2 mps 710 mmHg 97%
    23:00 -3°C° 0.3 mm 2 mps 710 mmHg 97%

    Day after tomorrow, 25 January, Friday

    Time Temperature Precipitation Wind Pressure Humidity
    00:00 -3°C° 0.3 mm 2 mps 710 mmHg 97%
    01:00 -3°C° 0.3 mm 2 mps 710 mmHg 97%
    02:00 -3°C° 0.2 mm 2 mps 710 mmHg 97%
    03:00 -4°C° 0.2 mm 2 mps 710 mmHg 96%
    04:00 -4°C° 0.2 mm 2 mps 710 mmHg 96%
    05:00 -4°C° 0.3 mm 2 mps 710 mmHg 96%
    06:00 -4°C° 0.3 mm 2 mps 710 mmHg 96%
    07:00 -5°C° 0.3 mm 2 mps 710 mmHg 96%
    08:00 -4°C° 0.2 mm 2 mps 711 mmHg 95%
    09:00 -4°C° 0.2 mm 2 mps 711 mmHg 94%
    10:00 -4°C° 0.2 mm 2 mps 711 mmHg 94%
    11:00 -4°C° 0.3 mm 2 mps 711 mmHg 93%
    12:00 -4°C° 0.3 mm 2 mps 711 mmHg 93%
    13:00 -4°C° 0.3 mm 2 mps 711 mmHg 92%
    14:00 -4°C° 0.4 mm 2 mps 711 mmHg 93%
    15:00 -4°C° 0.4 mm 2 mps 711 mmHg 94%
    16:00 -4°C° 0.4 mm 2 mps 711 mmHg 95%
    17:00 -4°C° 0.4 mm 2 mps 712 mmHg 95%
    18:00 -4°C° 0.4 mm 2 mps 712 mmHg 95%
    19:00 -5°C° 0.4 mm 2 mps 713 mmHg 96%
    20:00 -5°C° 0.3 mm 2 mps 713 mmHg 96%
    21:00 -5°C° 0.3 mm 2 mps 713 mmHg 96%
    22:00 -5°C° 0.3 mm 2 mps 713 mmHg 96%
    23:00 -5°C° 0.5 mm 2 mps 714 mmHg 96%

    26 January, Saturday

    Time Temperature Precipitation Wind Pressure Humidity
    00:00 -5°C° 0.5 mm 2 mps 714 mmHg 96%
    01:00 -5°C° 0.5 mm 2 mps 714 mmHg 96%
    02:00 -5°C° 0.5 mm 2 mps 714 mmHg 96%
    03:00 -6°C° 0.5 mm 3 mps 714 mmHg 96%
    04:00 -6°C° 0.5 mm 3 mps 714 mmHg 95%
    05:00 -6°C° 0.4 mm 3 mps 714 mmHg 95%
    06:00 -6°C° 0.4 mm 3 mps 715 mmHg 96%
    07:00 -6°C° 0.4 mm 2 mps 715 mmHg 96%
    08:00 -6°C° 0.4 mm 2 mps 715 mmHg 95%
    09:00 -5°C° 0.4 mm 2 mps 716 mmHg 95%
    10:00 -5°C° 0.4 mm 2 mps 716 mmHg 95%
    11:00 -5°C° 0.4 mm 2 mps 716 mmHg 94%
    12:00 -5°C° 0.4 mm 2 mps 716 mmHg 94%
    13:00 -5°C° 0.4 mm 2 mps 716 mmHg 93%
    14:00 -5°C° 0.4 mm 2 mps 716 mmHg 94%
    15:00 -5°C° 0.4 mm 2 mps 716 mmHg 94%
    16:00 -5°C° 0.4 mm 2 mps 716 mmHg 95%
    17:00 -3°C° 0.2 mm 1 mps 716 mmHg 95%
    18:00 -3°C° 0.2 mm 1 mps 716 mmHg 95%
    19:00 -3°C° 0.2 mm 1 mps 717 mmHg 95%
    20:00 -3°C° 0.1 mm 1 mps 717 mmHg 95%
    21:00 -3°C° 0.1 mm 1 mps 717 mmHg 94%
    22:00 -3°C° 0.1 mm 1 mps 717 mmHg 94%
    23:00 -4°C° 0 mm 1 mps 716 mmHg 93%

    27 January, Sunday

    Time Temperature Precipitation Wind Pressure Humidity
    00:00 -4°C° 0 mm 1 mps 716 mmHg 92%
    01:00 -6°C° 0 mm 1 mps 715 mmHg 91%
    02:00 -6°C° 0 mm 1 mps 715 mmHg 90%
    03:00 -7°C° 0 mm 1 mps 714 mmHg 90%
    04:00 -7°C° 0 mm 1 mps 714 mmHg 90%
    05:00 -7°C° 0 mm 1 mps 714 mmHg 90%
    06:00 -7°C° 0 mm 1 mps 713 mmHg 90%
    07:00 -7°C° 0 mm 1 mps 713 mmHg 90%
    08:00 -4°C° 0 mm 1 mps 713 mmHg 89%
    09:00 -1°C° 0 mm 1 mps 713 mmHg 88%
    10:00 +1°C° 0 mm 1 mps 713 mmHg 87%
    11:00 +2°C° 0 mm 1 mps 712 mmHg 90%
    12:00 +3°C° 0 mm 1 mps 712 mmHg 93%
    13:00 +4°C° 0 mm 1 mps 711 mmHg 97%
    14:00 +3°C° 0 mm 1 mps 711 mmHg 97%
    15:00 +2°C° 0 mm 0 mps 711 mmHg 97%
    16:00 +1°C° 0 mm 0 mps 711 mmHg 98%
    17:00 +1°C° 0 mm 0 mps 711 mmHg 97%
    18:00 +1°C° 0 mm 1 mps 711 mmHg 96%
    19:00 0°C° 0 mm 1 mps 712 mmHg 96%
    20:00 -1°C° 0 mm 1 mps 712 mmHg 94%
    21:00 -1°C° 0 mm 1 mps 712 mmHg 92%
    22:00 -1°C° 0 mm 1 mps 712 mmHg 91%
    23:00 -2°C° 0 mm 1 mps 712 mmHg 90%

    28 January, Monday

    Time Temperature Precipitation Wind Pressure Humidity
    00:00 -2°C° 0 mm 1 mps 712 mmHg 90%
    01:00 -2°C° 0 mm 1 mps 712 mmHg 90%
    02:00 -2°C° 0 mm 1 mps 712 mmHg 90%
    03:00 -1°C° 0 mm 1 mps 712 mmHg 90%
    04:00 -1°C° 0 mm 1 mps 712 mmHg 91%
    05:00 -1°C° 0 mm 1 mps 712 mmHg 90%
    06:00 -1°C° 0 mm 1 mps 712 mmHg 90%
    07:00 -1°C° 0 mm 1 mps 712 mmHg 90%
    08:00 0°C° 0 mm 1 mps 712 mmHg 91%
    09:00 +2°C° 0 mm 1 mps 713 mmHg 91%
    10:00 +3°C° 0 mm 1 mps 713 mmHg 92%
    11:00 +3°C° 0 mm 1 mps 712 mmHg 94%
    12:00 +4°C° 0 mm 1 mps 712 mmHg 96%
    13:00 +4°C° 0 mm 1 mps 712 mmHg 98%
    14:00 +4°C° 0.5 mm 1 mps 711 mmHg 98%
    15:00 +3°C° 0.5 mm 1 mps 711 mmHg 98%
    16:00 +3°C° 0.5 mm 1 mps 711 mmHg 98%
    17:00 +2°C° 0 mm 1 mps 711 mmHg 98%
    18:00 +2°C° 0 mm 1 mps 711 mmHg 97%
    19:00 0°C° 0 mm 0 mps 711 mmHg 96%
    20:00 0°C° 0 mm 0 mps 712 mmHg 96%
    21:00 0°C° 0 mm 0 mps 712 mmHg 96%
    22:00 0°C° 0 mm 0 mps 712 mmHg 96%
    23:00 0°C° 0.1 mm 1 mps 711 mmHg 96%
    Show more